#timestamp,LO_Frequency,Hit,StdDev 
1458644415.8,286047012.6,N
1458644435.6,286047014.5,N
1458644455.5,286047015.3,Y
1458644475.3,286047006.9,P
1458644495.1,286047006.6,N
1458644515.8,286047006.7,N
1458644535.7,286047006.4,N
1458644555.5,286047008.9,Y
1458644575.3,286047001.3,P
1458644595.2,286047006.0,N
1458644615.0,286047001.7,N
1458644615.9,286047001.7,N
1458644635.7,286047004.3,N
1458644655.6,286047000.6,N
1458644675.4,286047001.1,N
1458644695.2,286046999.5,N
1458644715.1,286047001.1,N
1458644716.0,286047001.1,N
1458644735.8,286046998.1,N
1458644755.6,286047000.8,N
1458644775.5,286046998.5,N
1458644795.3,286046996.6,N
1458644815.1,286046995.3,N
1458644835.9,286046995.6,N
1458644855.7,286046994.1,N
1458644875.5,286046996.2,N
1458644895.4,286046994.5,N
1458644915.2,286046996.3,N
1458644935.0,286046997.5,N
1458644935.9,286046997.5,N
1458644955.7,286046995.8,N
1458644975.6,286046994.4,N
1458644995.4,286046988.7,Y
1458645015.2,286046993.9,P
1458645035.1,286046999.5,N
1458645036.0,286046999.5,N
1458645055.8,286047000.9,N
1458645075.6,286046994.9,N
1458645095.5,286046992.1,Y
1458645115.3,286046995.0,P
1458645135.1,286046991.8,P
1458645155.9,286046993.1,N
1458645175.7,286046995.7,N
1458645195.5,286046995.7,N
1458645215.4,286046992.2,Y
1458645235.2,286046999.2,P
1458645255.0,286046995.3,N
1458645255.9,286046995.3,N
1458645275.8,286046997.0,N
1458645295.6,286047001.2,N
1458645315.4,286047000.9,N
1458645335.3,286047001.0,N
1458645355.1,286047002.5,N
1458645356.0,286047002.5,N
1458645375.8,286046998.7,N
1458645395.7,286046998.7,N
1458645415.5,286047000.8,N
1458645435.3,286047000.7,N
1458645455.2,286047000.3,N
1458645475.9,286047000.3,N
1458645495.7,286046998.8,N
1458645515.5,286046996.6,N
1458645535.4,286046998.8,N
1458645555.2,286046999.0,N
1458645575.0,286046998.8,N
1458645575.9,286046998.8,N
1458645595.8,286046998.7,N
1458645615.6,286046995.1,N
1458645635.4,286046994.7,N
1458645655.3,286046996.3,N
1458645675.1,286046990.8,Y
1458645695.8,286046991.1,P
1458645715.7,286046989.3,N
1458645735.5,286046987.8,P
1458645755.3,286046989.6,N
1458645775.2,286046991.0,N
1458645795.9,286046989.1,Y
1458645815.7,286046999.2,P
1458645835.6,286046999.3,N
1458645855.4,286046998.1,N
1458645875.2,286047002.8,N
1458645895.1,286047001.9,N
1458645896.0,286047001.9,N
1458645915.8,286047005.5,N
1458645935.6,286047005.7,N
1458645955.4,286047003.1,N
1458645975.3,286047002.5,N
1458645995.1,286047002.5,N
1458646015.8,286047002.3,N
1458646035.7,286046998.2,N
1458646055.5,286047000.6,N
1458646075.3,286047006.0,N
1458646095.2,286047005.0,N
1458646115.9,286047004.6,N
1458646135.7,286047004.5,N
1458646155.6,286047007.4,N
1458646175.4,286047006.4,N
1458646195.2,286047008.7,N
1458646215.0,286047009.2,N
1458646216.0,286047009.2,N
1458646235.8,286047008.6,N
1458646255.6,286047009.9,N
1458646275.4,286047011.4,N
1458646295.3,286047012.3,N
1458646315.1,286047010.1,N
1458646335.8,286047010.0,N
1458646355.7,286047012.8,N
1458646375.5,286047013.3,Y
1458646395.3,286047011.8,P
1458646415.2,286047010.0,P
1458646435.9,286047013.7,P
1458646455.7,286047016.6,Y
1458646475.6,286047010.3,P
1458646495.4,286047015.3,P
1458646515.2,286047019.8,P
1458646535.1,286047021.4,Y
1458646536.0,286047021.4,P
1458646555.8,286047007.0,N
1458646575.6,286047005.2,N
1458646595.5,286046999.8,N
1458646615.3,286046998.1,N
1458646635.1,286046996.1,N
1458646655.9,286046995.3,N
1458646675.7,286046993.7,N
1458646695.5,286046996.4,N
1458646715.4,286046994.7,N
1458646735.2,286046997.3,N
1458646755.0,286046998.3,N
1458646755.9,286046998.3,N
1458646775.8,286046999.4,N
1458646795.6,286046998.6,N
1458646815.4,286047001.0,N
1458646835.2,286046999.9,N
1458646855.1,286047000.8,N
1458646856.0,286047000.8,N
1458646875.8,286046998.9,N
1458646895.6,286046999.2,N
1458646915.5,286046999.3,N
1458646935.3,286047002.8,N
1458646955.1,286047001.7,N
1458646975.9,286047004.2,N
1458646995.7,286047002.1,N
1458647015.5,286047001.6,N
1458647035.4,286047001.8,N
1458647055.2,286047003.8,N
1458647075.0,286047003.1,N
1458647075.9,286047003.1,N
1458647095.8,286047007.4,N
1458647115.6,286047008.2,N
1458647135.4,286047009.3,N
1458647155.3,286047010.3,N
1458647175.1,286047010.6,N
1458647176.0,286047010.6,N
1458647195.8,286047011.1,N
1458647215.7,286047013.9,Y
1458647235.5,286047011.4,P
1458647255.3,286047007.3,N
1458647275.1,286047007.6,N
1458647295.9,286047003.4,N
1458647315.7,286047003.3,N
1458647335.5,286047003.9,N
1458647355.4,286047003.0,N
1458647375.2,286047005.4,N
1458647395.0,286047007.5,N
1458647395.9,286047007.5,N
1458647415.8,286047007.2,N
1458647435.6,286047007.3,N
1458647455.4,286047008.6,Y
1458647475.3,286047006.0,P
1458647495.1,286047005.8,P
1458647515.8,286047006.8,P
1458647535.7,286047007.3,Y
1458647555.5,286046998.7,P
1458647575.3,286046999.7,N
1458647595.2,286047001.9,N
1458647615.9,286047003.5,N
1458647635.7,286047005.1,N
1458647655.6,286047003.5,N
1458647675.4,286047003.4,N
1458647695.2,286047002.1,N
1458647715.0,286047002.5,N
1458647716.0,286047002.5,N
1458647735.8,286047001.0,N
1458647755.6,286047001.7,N
1458647775.4,286047002.9,N
1458647795.3,286047002.7,N
1458647815.1,286046997.1,N
1458647835.8,286046991.9,Y
1458647855.7,286046987.4,P
1458647875.5,286046983.7,N
1458647895.3,286046982.2,N
1458647915.2,286046980.9,N
1458647935.9,286046979.4,N
1458647955.7,286046979.4,N
1458647975.6,286046979.7,N
1458647995.4,286046976.2,Y
